[[{"header":{"parameterUnit":"m.s-1","parameterCategory":2,"la1":30.2991,"la2":30.254,"lo1":-89.0895,"lo2":-89.0444,"dy":0.0017,"dx":0.0017,"nx":28,"ny":28,"refTime":"2024-11-26T09:00:00:Z","depth":"0","parameterNumber":2,"parameterNumberName":"U-component_of_CURRENTS"},"data":[0,0,0,0,0,0,0,0,0,0,0,0,0,0,0,0,0,0,0,0,0,0,0,0,0,0,0,0,0,0,0,0,0,0,0,0,0,0,0,0,0,0,0,0,0,0,0,0,0,0,0,0,0,0,0,0,0,0,0.0924,0.0925,0,0.0978,0.0978,0.0978,0.0954,0.0953,0.0953,0.0953,0.0992,0.0993,0.0995,0,0,0,0,0,0,0,0,0,0,0,0,0,0.0804,0.0805,0.0924,0.0925,0.0927,0.0978,0.0978,0.0978,0.0954,0.0953,0.0953,0.0953,0.0992,0.0993,0.0995,0,0,0,0,0,0,0,0,0,0,0,0,0,0.0846,0.0806,0.0923,0.093,0.0932,0.0978,0.0978,0.0978,0.0954,0.0953,0.0953,0.0953,0.0991,0.0993,0.0995,0.1015,0,0,0.1001,0.1002,0,0,0,0,0,0,0,0,0.0843,0.0849,0.0927,0.093,0.0932,0.0969,0.0951,0.0993,0.0954,0.0933,0.0953,0.0952,0.0991,0.0993,0.0987,0.1017,0.1018,0.1001,0.1002,0.1003,0.1004,0,0,0,0,0,0,0,0.0841,0.0847,0.0933,0.093,0.0933,0.0933,0.0937,0.0958,0.0954,0.0935,0.0936,0.0961,0.099,0.0986,0.0988,0.1019,0.1001,0.1003,0.1004,0.1005,0.1109,0.111,0,0,0,0,0,0,0.0858,0.0844,0.0932,0.0936,0.0899,0.0937,0.094,0.0948,0.0954,0.0958,0.0961,0.096,0.0982,0.0986,0.099,0.1041,0.1003,0.1005,0.1006,0.1107,0.1109,0.1111,0,0,0,0,0,0,0.0855,0.0864,0.093,0.0901,0.0911,0.094,0.0948,0.095,0.0942,0.0977,0.0978,0.0954,0.0982,0.0987,0.0983,0.1041,0.1006,0.1007,0.1105,0.1108,0.111,0.1126,0,0,0,0,0,0,0.0851,0.0862,0.0857,0.0902,0.0914,0.0951,0.095,0.0951,0.0965,0.0963,0.0972,0.0975,0.0982,0.098,0.0985,0.1043,0.1009,0.1103,0.1106,0.1109,0.1124,0.1129,0.1133,0,0,0,0,0,0.0846,0.0845,0.0855,0.0866,0.091,0.0953,0.0956,0.0968,0.0965,0.0959,0.0951,0.0974,0.1005,0.098,0.0986,0.1048,0.1102,0.1105,0.1109,0.1122,0.1128,0.1133,0,0,0,0,0,0,0.0787,0.0846,0.0857,0.0872,0.091,0.0953,0.095,0.0968,0.0957,0.0946,0.0964,0.0966,0.0996,0.1011,0.0984,0.1089,0.1071,0.1076,0.1079,0.1085,0.109,0.1197,0.1011,0,0,0,0,0,0.0777,0.0794,0.0849,0.0864,0.0875,0.091,0.0925,0.0941,0.0954,0.0948,0.0952,0.0974,0.1019,0.1036,0.1056,0.1095,0.118,0.115,0.1155,0.1159,0.1252,0.1376,0.1402,0.1123,0.1123,0.1122,0,0,0.0791,0.08,0.0829,0.0854,0.0873,0.0908,0.0913,0.0936,0.0981,0.0957,0.0972,0.0976,0.1028,0.107,0.1091,0.1088,0.1274,0.1163,0.1166,0.126,0.1383,0.1411,0.1436,0.1125,0.1125,0.1124,0,0,0.0815,0.0797,0.083,0.084,0.0869,0.0891,0.0901,0.0932,0.0951,0.0967,0.0985,0.1036,0.1042,0.1131,0.1175,0.123,0.1286,0.1213,0.1338,0.1453,0.1479,0.1503,0.1612,0.1645,0.1226,0.1226,0.1227,0,0.0815,0.0864,0.0847,0.0856,0.0896,0.0888,0.095,0.0958,0.0985,0.1052,0.0971,0.11,0.1109,0.1282,0.1291,0.1255,0.1309,0.13,0.1464,0.1489,0.1513,0.162,0.1657,0.1228,0.1228,0.1227,0.1227,0,0.0885,0.0903,0.0909,0.0932,0.0952,0.0994,0.1025,0.1045,0.1049,0.11,0.1218,0.1221,0.1341,0.1328,0.1321,0.152,0.1496,0.144,0.1451,0.1543,0.1648,0.1686,0.1229,0.1229,0.1229,0.1228,0,0,0.0953,0.0971,0.0981,0.1014,0.1008,0.1052,0.1105,0.1223,0.1321,0.131,0.1471,0.1532,0.1561,0.162,0.1626,0.1716,0.1887,0.165,0.1655,0.1768,0.214,0.2104,0.2142,0.1828,0.1836,0.1842,0.2133,0,0.1032,0.1105,0.1097,0.1182,0.1222,0.1228,0.1296,0.1378,0.1427,0.154,0.1621,0.1729,0.1665,0.1718,0.1813,0.1874,0.1994,0.1816,0.2034,0.2043,0.2007,0.2189,0.2084,0.2334,0.217,0.2177,0.2181,0,0.1101,0.1152,0.1266,0.134,0.1368,0.1416,0.1569,0.1629,0.177,0.1812,0.1946,0.1972,0.2166,0.2034,0.2285,0.2156,0.2197,0.2213,0.2223,0.224,0.2082,0.2225,0.241,0.2364,0.224,0.2236,0.2231,0,0.1176,0.126,0.1375,0.1392,0.1471,0.1559,0.1622,0.1742,0.1824,0.2006,0.207,0.2275,0.2359,0.2472,0.2514,0.2411,0.2737,0.2597,0.2629,0.2624,0.2622,0.2605,0.2816,0.2817,0.2816,0.2815,0.2815,0,0.125,0.1342,0.1426,0.1483,0.1642,0.1653,0.1819,0.1909,0.2031,0.2154,0.2229,0.2353,0.2458,0.2612,0.2647,0.2795,0.2872,0.2757,0.2739,0.2615,0.2595,0.262,0.2562,0.2826,0.2824,0.2822,0.282,0,0.1331,0.1368,0.1484,0.1615,0.1663,0.1776,0.1892,0.1999,0.2099,0.2259,0.2317,0.2469,0.2669,0.2781,0.2975,0.2962,0.3039,0.3118,0.2966,0.2926,0.2861,0.2805,0.2946,0.2891,0.3236,0.3238,0.3239,0,0.1425,0.1479,0.1588,0.1642,0.1715,0.1851,0.1932,0.2038,0.2128,0.232,0.2409,0.2624,0.2761,0.3052,0.3127,0.3289,0.3138,0.3234,0.3041,0.2956,0.2882,0.2701,0.263,0.3032,0.3032,0.3031,0.3031,0,0.1604,0.1593,0.1667,0.1749,0.1837,0.193,0.2055,0.2119,0.2238,0.2357,0.252,0.264,0.2904,0.3015,0.3204,0.3259,0.3095,0.3226,0.3202,0.2853,0.2618,0.2517,0.2726,0.3027,0.3027,0.3027,0.3028,0.3028,0.1714,0.1778,0.1792,0.1868,0.192,0.1976,0.2037,0.2122,0.2231,0.2358,0.2528,0.264,0.2859,0.3104,0.3138,0.3158,0.3102,0.3065,0.3044,0.29,0.2745,0.2955,0.3168,0.3169,0.317,0.3171,0.3172,0,0.1847,0.1866,0.1926,0.1948,0.1946,0.1985,0.2082,0.21,0.2168,0.2292,0.2408,0.2615,0.2767,0.2897,0.304,0.2979,0.2818,0.294,0.2682,0.2649,0.293,0.2816,0.2883,0.2884,0.2884,0.2884,0.2884,0.2884,0.1891,0.1962,0.1958,0.1941,0.1943,0.1931,0.1958,0.1993,0.2046,0.2138,0.2204,0.2323,0.263,0.2901,0.2902,0.2849,0.2663,0.2575,0.2592,0.2791,0.2799,0.2806,0.269,0.2729,0.2729,0.2189,0.2186,0.2183]},{"header":{"parameterUnit":"m.s-1","parameterCategory":2,"la1":30.2991,"la2":30.254,"lo1":-89.0895,"lo2":-89.0444,"dy":0.0017,"dx":0.0017,"nx":28,"ny":28,"refTime":"2024-11-26T09:00:00:Z","depth":"0","parameterNumber":3,"parameterNumberName":"V-component_of_CURRENTS"},"data":[0,0,0,0,0,0,0,0,0,0,0,0,0,0,0,0,0,0,0,0,0,0,0,0,0,0,0,0,0,0,0,0,0,0,0,0,0,0,0,0,0,0,0,0,0,0,0,0,0,0,0,0,0,0,0,0,0,0,0.0748,0.0748,0,0.071,0.071,0.0709,0.0718,0.0719,0.0719,0.072,0.0718,0.0718,0.0717,0,0,0,0,0,0,0,0,0,0,0,0,0,0.0711,0.0712,0.0748,0.0748,0.0747,0.071,0.071,0.0709,0.0718,0.0719,0.0719,0.072,0.0718,0.0718,0.0717,0,0,0,0,0,0,0,0,0,0,0,0,0,0.0708,0.0713,0.0749,0.0745,0.0744,0.071,0.071,0.0709,0.0718,0.0719,0.0719,0.072,0.0719,0.0718,0.0717,0.0698,0,0,0.0715,0.0715,0,0,0,0,0,0,0,0,0.0708,0.071,0.0746,0.0745,0.0744,0.0717,0.0696,0.0706,0.0718,0.0731,0.072,0.0721,0.0719,0.0718,0.0713,0.0698,0.0698,0.0715,0.0714,0.0714,0.0714,0,0,0,0,0,0,0,0.0709,0.0711,0.0736,0.0745,0.0744,0.0704,0.0706,0.0697,0.0724,0.073,0.0729,0.0721,0.0719,0.0713,0.0713,0.0698,0.0715,0.0714,0.0714,0.0714,0.072,0.072,0,0,0,0,0,0,0.0714,0.0712,0.0737,0.0734,0.0725,0.0705,0.0707,0.0727,0.0723,0.0722,0.072,0.0721,0.0714,0.0714,0.0713,0.0736,0.0714,0.0713,0.0713,0.0719,0.072,0.072,0,0,0,0,0,0,0.0714,0.0718,0.0739,0.0718,0.0718,0.0705,0.0728,0.0726,0.0731,0.0715,0.0716,0.0728,0.0715,0.0714,0.068,0.0735,0.0713,0.0712,0.0718,0.0719,0.072,0.0753,0,0,0,0,0,0,0.0713,0.0719,0.0716,0.072,0.0719,0.0752,0.0726,0.0725,0.0723,0.0724,0.0722,0.0722,0.0715,0.0681,0.0679,0.0733,0.0712,0.0717,0.0719,0.072,0.0751,0.0755,0.0758,0,0,0,0,0,0.0713,0.0717,0.0717,0.0718,0.0724,0.0754,0.0752,0.0744,0.0722,0.0746,0.0697,0.0722,0.069,0.0678,0.0677,0.0733,0.0717,0.0718,0.072,0.075,0.0754,0.0758,0,0,0,0,0,0,0.0682,0.0718,0.0718,0.0728,0.0753,0.0755,0.074,0.0748,0.0728,0.0704,0.0695,0.0692,0.0707,0.0694,0.0682,0.0738,0.0723,0.0724,0.0746,0.0751,0.0754,0.0811,0.0711,0,0,0,0,0,0.0677,0.0706,0.0729,0.0738,0.0738,0.0739,0.0737,0.0746,0.0732,0.0725,0.071,0.0695,0.071,0.0704,0.0712,0.0706,0.0709,0.0752,0.0755,0.0758,0.0804,0.0796,0.0803,0.0725,0.0725,0.0725,0,0,0.0683,0.0686,0.0712,0.0735,0.0729,0.0741,0.0741,0.0747,0.0775,0.0725,0.0716,0.0708,0.0713,0.0725,0.0733,0.0717,0.0779,0.076,0.0762,0.0808,0.0798,0.0806,0.0813,0.0726,0.0726,0.0725,0,0,0.0697,0.0692,0.0723,0.073,0.073,0.0732,0.0743,0.0747,0.0768,0.0756,0.0745,0.0745,0.0736,0.076,0.0771,0.0792,0.0807,0.0812,0.0865,0.0855,0.0862,0.0868,0.0867,0.0873,0.0801,0.0801,0.0801,0,0.0681,0.0733,0.0736,0.0738,0.075,0.0733,0.077,0.0774,0.0773,0.0815,0.076,0.0786,0.0766,0.0834,0.0838,0.0809,0.0804,0.0845,0.0861,0.0867,0.0873,0.0871,0.0877,0.0803,0.0803,0.0803,0.0803,0,0.0728,0.075,0.0751,0.0766,0.0781,0.0802,0.0815,0.0835,0.0829,0.0854,0.0915,0.0861,0.0906,0.0891,0.0863,0.0928,0.0911,0.0872,0.0851,0.0883,0.0878,0.0884,0.0806,0.0805,0.0805,0.0804,0,0,0.0769,0.0789,0.0809,0.0835,0.0805,0.0853,0.0869,0.0951,0.1024,0.0982,0.109,0.1058,0.106,0.1074,0.1048,0.1012,0.1015,0.096,0.0958,0.0965,0.1005,0.0944,0.0944,0.097,0.0971,0.0972,0.098,0,0.0815,0.0879,0.0879,0.0947,0.0967,0.0965,0.1008,0.1064,0.11,0.118,0.1164,0.1231,0.1126,0.1159,0.111,0.1061,0.1036,0.1019,0.0973,0.0973,0.0917,0.095,0.0865,0.086,0.0985,0.0986,0.0987,0,0.0856,0.0913,0.0991,0.1076,0.1096,0.1135,0.1259,0.1303,0.1384,0.1414,0.1451,0.145,0.1448,0.1332,0.1246,0.1238,0.115,0.1067,0.1064,0.1014,0.0923,0.0852,0.0866,0.0666,0.0996,0.0995,0.0994,0,0.0909,0.0996,0.1084,0.1095,0.1161,0.1246,0.1315,0.1395,0.148,0.1589,0.1646,0.1641,0.1644,0.1529,0.1361,0.1316,0.1244,0.1159,0.1026,0.1021,0.0949,0.0934,0.0775,0.1117,0.1117,0.1117,0.1117,0,0.094,0.1028,0.1134,0.118,0.1329,0.1351,0.1507,0.1581,0.169,0.1788,0.1788,0.184,0.1685,0.1623,0.1453,0.1267,0.1319,0.1072,0.1028,0.0954,0.0941,0.0764,0.0691,0.1118,0.1118,0.1118,0.1118,0,0.0982,0.1016,0.1118,0.127,0.1327,0.1446,0.1616,0.1726,0.1815,0.1944,0.1987,0.2002,0.1897,0.1742,0.1559,0.1384,0.1105,0.1144,0.1075,0.1023,0.068,0.0614,0.0511,0.0444,0.1,0.0998,0.0997,0,0.105,0.108,0.1209,0.1281,0.1365,0.153,0.1625,0.1761,0.1877,0.2014,0.2088,0.2071,0.2049,0.1791,0.1484,0.123,0.1063,0.0989,0.0878,0.0678,0.0573,0.0539,0.0489,0.0789,0.0787,0.0784,0.0783,0,0.1186,0.1169,0.1253,0.1369,0.1484,0.1616,0.1799,0.1902,0.2031,0.2147,0.2244,0.2255,0.201,0.1703,0.1383,0.118,0.0842,0.0932,0.074,0.0427,0.037,0.0278,0.0775,0.0763,0.0765,0.0766,0.0767,0.0768,0.1287,0.1345,0.1381,0.1487,0.1575,0.17,0.1826,0.1975,0.2132,0.23,0.2332,0.2313,0.1917,0.145,0.1167,0.0595,0.0679,0.0394,0.0344,0.0338,0.0234,0.0699,0.062,0.0621,0.0622,0.0623,0.0624,0,0.1415,0.1437,0.1534,0.1606,0.1664,0.1719,0.1919,0.2027,0.2173,0.2269,0.2368,0.2143,0.1659,0.1148,0.0435,0.0064,-0.0031,-0.0119,-0.021,-0.0223,0.018,0.0125,-0.0083,-0.0083,-0.0083,-0.0083,-0.0083,-0.0082,0.1458,0.1534,0.1544,0.1635,0.1698,0.1806,0.1907,0.2064,0.2159,0.2267,0.2205,0.2204,0.1806,0.0588,-0.0258,-0.042,-0.0638,-0.0697,-0.0733,-0.052,-0.0477,-0.0436,-0.051,-0.0848,-0.0849,-0.1145,-0.1149,-0.1151]}],[{"header":{"parameterUnit":"m.s-1","parameterCategory":2,"la1":30.2991,"la2":30.254,"lo1":-89.0895,"lo2":-89.0444,"dy":0.0017,"dx":0.0017,"nx":28,"ny":28,"refTime":"2024-11-26T09:00:00:Z","depth":"2","parameterNumber":2,"parameterNumberName":"U-component_of_CURRENTS"},"data":[0,0,0,0,0,0,0,0,0,0,0,0,0,0,0,0,0,0,0,0,0,0,0,0,0,0,0,0,0,0,0,0,0,0,0,0,0,0,0,0,0,0,0,0,0,0,0,0,0,0,0,0,0,0,0,0,0,0,0.0215,0.0216,0,0.0257,0.0256,0.0256,0.0391,0.0396,0.04,0.0404,0.0591,0.0592,0.0593,0,0,0,0,0,0,0,0,0,0,0,0,0,0.0272,0.0268,0.0215,0.0217,0.0218,0.0257,0.0256,0.0255,0.039,0.0396,0.0401,0.0406,0.0591,0.0592,0.0593,0,0,0,0,0,0,0,0,0,0,0,0,0,0.0259,0.0267,0.0214,0.0301,0.0311,0.0257,0.0256,0.0255,0.0389,0.0396,0.0403,0.0409,0.0591,0.0592,0.0593,0.047,0,0,0.0598,0.0598,0,0,0,0,0,0,0,0,0.026,0.0255,0.0287,0.0296,0.0306,0.0339,0.0346,0.034,0.0388,0.0344,0.0404,0.0412,0.0525,0.0532,0.0502,0.0479,0.0487,0.0598,0.0599,0.0599,0.06,0,0,0,0,0,0,0,0.026,0.0254,0.0216,0.0289,0.03,0.0347,0.035,0.0344,0.0388,0.0348,0.0362,0.0388,0.053,0.05,0.0509,0.049,0.0598,0.0599,0.06,0.06,0.0553,0.0551,0,0,0,0,0,0,0.0275,0.0254,0.0215,0.0219,0.0315,0.0341,0.0345,0.0309,0.0386,0.0407,0.0382,0.0394,0.0495,0.0507,0.0516,0.0661,0.0599,0.06,0.0601,0.0555,0.0553,0.0551,0,0,0,0,0,0,0.0275,0.0268,0.0214,0.0254,0.0253,0.0335,0.0293,0.0307,0.0345,0.0413,0.0435,0.0417,0.05,0.0514,0.0577,0.066,0.0601,0.0602,0.0558,0.0555,0.0552,0.0768,0,0,0,0,0,0,0.0275,0.0266,0.028,0.0252,0.0252,0.0224,0.0289,0.0304,0.0354,0.0371,0.0447,0.0468,0.0507,0.0575,0.0578,0.0661,0.0603,0.0561,0.0556,0.0553,0.0764,0.0773,0.0781,0,0,0,0,0,0.0276,0.0289,0.0278,0.0278,0.0253,0.0226,0.0227,0.03,0.035,0.0357,0.0427,0.0469,0.0552,0.0575,0.0579,0.0665,0.0562,0.0558,0.0553,0.076,0.0771,0.0781,0,0,0,0,0,0,0.0335,0.0303,0.0293,0.0297,0.0275,0.0256,0.029,0.0308,0.0353,0.0392,0.0454,0.0477,0.0562,0.053,0.0554,0.0617,0.0556,0.0553,0.0712,0.0722,0.0731,0.084,0.0604,0,0,0,0,0,0.0339,0.0331,0.0293,0.0294,0.0281,0.0273,0.0288,0.031,0.0336,0.0364,0.0421,0.0463,0.0518,0.0565,0.0575,0.0608,0.0604,0.0645,0.0654,0.0663,0.074,0.0737,0.0757,0.0536,0.0536,0.0536,0,0,0.0326,0.0348,0.0319,0.0307,0.0289,0.0304,0.0296,0.0305,0.0371,0.0372,0.0487,0.0498,0.0523,0.0594,0.0625,0.0607,0.0715,0.0657,0.0667,0.0741,0.0735,0.0758,0.0779,0.0532,0.0533,0.0534,0,0,0.0336,0.0333,0.0323,0.0336,0.0351,0.0349,0.0359,0.0342,0.0395,0.0443,0.0497,0.0588,0.0591,0.0698,0.0737,0.0776,0.0753,0.0714,0.0887,0.0881,0.0903,0.0923,0.0949,0.0969,0.0732,0.0732,0.0733,0,0.0363,0.0363,0.0318,0.0363,0.0419,0.038,0.0413,0.0436,0.0464,0.0528,0.0511,0.0631,0.0679,0.0854,0.0894,0.0828,0.0784,0.0876,0.0908,0.0926,0.0943,0.0964,0.0984,0.0742,0.0741,0.074,0.0739,0,0.0375,0.0408,0.0419,0.0465,0.0485,0.0521,0.0539,0.0561,0.0605,0.0666,0.0801,0.0847,0.0932,0.0948,0.0967,0.1107,0.1025,0.0922,0.092,0.0981,0.0995,0.1012,0.0756,0.0753,0.075,0.0747,0,0,0.0359,0.042,0.0427,0.0463,0.0574,0.055,0.0666,0.075,0.0819,0.0896,0.1006,0.1189,0.1204,0.1246,0.1257,0.1314,0.1426,0.1184,0.1179,0.1283,0.141,0.1275,0.1279,0.1289,0.1293,0.1296,0.1379,0,0.041,0.0495,0.0536,0.0609,0.0645,0.0693,0.0785,0.0863,0.0936,0.1009,0.1152,0.125,0.1316,0.1334,0.1423,0.1369,0.1474,0.1415,0.1274,0.1274,0.1206,0.1297,0.1245,0.1305,0.1395,0.1397,0.1399,0,0.0447,0.0506,0.0593,0.0673,0.0683,0.075,0.0859,0.0919,0.1065,0.1125,0.1295,0.1337,0.153,0.1478,0.1615,0.1537,0.1546,0.1531,0.1529,0.1361,0.1171,0.1246,0.1331,0.1427,0.1425,0.1423,0.1421,0,0.0474,0.0551,0.0628,0.0677,0.0754,0.0812,0.0857,0.0991,0.106,0.1201,0.1254,0.1446,0.1496,0.1552,0.1582,0.1566,0.1624,0.1566,0.1511,0.15,0.1421,0.1395,0.1713,0.1713,0.1713,0.1713,0.1713,0,0.0573,0.06,0.0631,0.0698,0.0748,0.0791,0.0893,0.0959,0.1079,0.1177,0.1314,0.1403,0.1501,0.1537,0.157,0.158,0.1624,0.1612,0.153,0.1482,0.1463,0.1521,0.1497,0.1716,0.1715,0.1715,0.1714,0,0.0538,0.0613,0.0668,0.0751,0.0787,0.0789,0.0916,0.0938,0.108,0.1182,0.1233,0.1381,0.1432,0.15,0.1543,0.1552,0.1558,0.1562,0.1518,0.1431,0.1466,0.1451,0.1558,0.1554,0.1551,0.1548,0.1546,0,0.0532,0.0564,0.0671,0.0714,0.0764,0.0805,0.0834,0.0953,0.1,0.1176,0.1194,0.1309,0.1371,0.1384,0.1401,0.1434,0.1501,0.1404,0.1424,0.1551,0.1459,0.1449,0.1439,0.1416,0.1413,0.141,0.1408,0,0.0465,0.0506,0.0526,0.0652,0.0706,0.0718,0.0795,0.0849,0.0948,0.1044,0.1122,0.1179,0.1255,0.127,0.1298,0.1297,0.1379,0.1351,0.1491,0.1422,0.1411,0.1321,0.1318,0.1386,0.1388,0.139,0.1391,0.1392,0.0392,0.0354,0.0438,0.0518,0.0576,0.0609,0.0653,0.073,0.0786,0.0958,0.0984,0.11,0.1162,0.12,0.117,0.1173,0.1248,0.1262,0.1274,0.1287,0.1215,0.1194,0.1119,0.112,0.112,0.1121,0.1121,0,0.0288,0.0261,0.0314,0.0392,0.0404,0.0516,0.058,0.0615,0.0689,0.0885,0.0977,0.0945,0.1014,0.1111,0.1111,0.1077,0.109,0.1044,0.1122,0.1143,0.1161,0.1087,0.0956,0.0955,0.0955,0.0955,0,0,0.023,0.0185,0.0191,0.0197,0.0282,0.0307,0.0368,0.0475,0.064,0.0778,0.0933,0.1052,0.1126,0.1072,0.103,0.1044,0.1087,0.0988,0.1122,0.1238,0.1258,0.128,0.1186,0,0,0,0,0]},{"header":{"parameterUnit":"m.s-1","parameterCategory":2,"la1":30.2991,"la2":30.254,"lo1":-89.0895,"lo2":-89.0444,"dy":0.0017,"dx":0.0017,"nx":28,"ny":28,"refTime":"2024-11-26T09:00:00:Z","depth":"2","parameterNumber":3,"parameterNumberName":"V-component_of_CURRENTS"},"data":[0,0,0,0,0,0,0,0,0,0,0,0,0,0,0,0,0,0,0,0,0,0,0,0,0,0,0,0,0,0,0,0,0,0,0,0,0,0,0,0,0,0,0,0,0,0,0,0,0,0,0,0,0,0,0,0,0,0,-0.0382,-0.0379,0,-0.0264,-0.0264,-0.0264,-0.0064,-0.0059,-0.0054,-0.005,0.0102,0.0101,0.01,0,0,0,0,0,0,0,0,0,0,0,0,0,-0.0254,-0.026,-0.0382,-0.0379,-0.0376,-0.0264,-0.0264,-0.0264,-0.0065,-0.0059,-0.0053,-0.0047,0.0102,0.0101,0.01,0,0,0,0,0,0,0,0,0,0,0,0,0,-0.0255,-0.0262,-0.0382,-0.0253,-0.0239,-0.0264,-0.0264,-0.0264,-0.0067,-0.0059,-0.0051,-0.0044,0.0102,0.0101,0.01,-0.0058,0,0,0.0097,0.0096,0,0,0,0,0,0,0,0,-0.0256,-0.0262,-0.0275,-0.0262,-0.0246,-0.0158,-0.0162,-0.0188,-0.0069,-0.0148,-0.0049,-0.0041,0.0022,0.0027,0.0012,-0.0051,-0.0045,0.0097,0.0096,0.0096,0.0095,0,0,0,0,0,0,0,-0.0256,-0.0264,-0.035,-0.0272,-0.0255,-0.0137,-0.0133,-0.0167,-0.0118,-0.014,-0.0122,-0.0088,0.0029,0.0012,0.0017,-0.0042,0.0097,0.0096,0.0095,0.0095,-0.0043,-0.0046,0,0,0,0,0,0,-0.0261,-0.0268,-0.0353,-0.0345,-0.0215,-0.0146,-0.0141,-0.0206,-0.0117,-0.0093,-0.0094,-0.0079,0.001,0.0018,0.0023,0.0146,0.0096,0.0095,0.0094,-0.004,-0.0044,-0.0047,0,0,0,0,0,0,-0.0261,-0.0275,-0.0358,-0.0283,-0.0284,-0.0156,-0.0231,-0.0207,-0.0144,-0.008,-0.0056,-0.0041,0.0016,0.0025,0.0082,0.0143,0.0094,0.0093,-0.0037,-0.0041,-0.0046,0.0197,0,0,0,0,0,0,-0.026,-0.0278,-0.0236,-0.0289,-0.0288,-0.0334,-0.0235,-0.021,-0.0132,-0.0109,-0.0031,-0.0012,0.0023,0.0084,0.0081,0.0141,0.0093,-0.0033,-0.0039,-0.0044,0.0193,0.0201,0.0208,0,0,0,0,0,-0.0258,-0.0226,-0.0239,-0.0241,-0.0271,-0.0333,-0.0324,-0.0212,-0.0136,-0.0126,-0.0038,-0.001,0.0044,0.0082,0.0079,0.0141,-0.003,-0.0037,-0.0044,0.0189,0.02,0.0208,0,0,0,0,0,0,-0.0154,-0.0205,-0.0217,-0.0207,-0.0256,-0.0291,-0.0211,-0.0202,-0.0138,-0.0084,-0.0025,-0.0005,0.0071,0.0012,0.0053,0.0058,-0.0003,-0.0011,0.0174,0.0184,0.0191,0.0248,0.0092,0,0,0,0,0,-0.0129,-0.012,-0.0201,-0.0199,-0.0209,-0.0226,-0.0198,-0.0191,-0.017,-0.013,-0.0063,-0.0028,0.0007,0.0037,0.0038,0.0034,-0.004,0.0045,0.0053,0.0062,0.009,-0.0026,-0.0022,-0.007,-0.007,-0.007,0,0,-0.0164,-0.011,-0.0158,-0.017,-0.0184,-0.0187,-0.0192,-0.0192,-0.0149,-0.0135,0.0003,0.0016,0.0007,0.0059,0.0077,0.0047,0.0034,0.0053,0.0063,0.0086,-0.0032,-0.0026,-0.0021,-0.0074,-0.0074,-0.0073,0,0,-0.0169,-0.0131,-0.014,-0.0119,-0.0094,-0.0112,-0.0112,-0.0151,-0.0095,-0.0055,0.0006,0.0068,0.0079,0.0132,0.0146,0.0157,0.0087,0.0114,0.0221,0.011,0.0116,0.012,0.0066,0.0063,0.0112,0.0113,0.0113,0,-0.0121,-0.0155,-0.0156,-0.0081,-0.0023,-0.0074,-0.0081,-0.0057,-0.0053,-0.0013,0.0023,0.0101,0.0131,0.0215,0.0258,0.02,0.0111,0.0228,0.0134,0.0136,0.0136,0.0078,0.0073,0.0124,0.0123,0.0121,0.012,0,-0.0159,-0.0113,-0.0088,-0.0016,0.0011,0.0015,0.0017,0.0029,0.0087,0.0129,0.022,0.0254,0.0292,0.0307,0.0326,0.0339,0.0271,0.0179,0.0149,0.0158,0.0093,0.0084,0.0139,0.0135,0.0132,0.0129,0,0,-0.0217,-0.0134,-0.012,-0.0075,0.0071,0.0028,0.0119,0.0137,0.0183,0.0262,0.0323,0.0463,0.0478,0.0485,0.0483,0.0441,0.0425,0.0332,0.0321,0.035,0.0198,0.0128,0.011,0.03,0.0298,0.0297,0.0168,0,-0.0216,-0.0131,-0.0069,-0.0015,0.0018,0.0074,0.016,0.02,0.0256,0.0307,0.0389,0.0465,0.0544,0.0547,0.054,0.0402,0.0399,0.047,0.012,0.0111,0.0107,0.0096,0.0109,-0.0011,0.0157,0.0155,0.0154,0,-0.0222,-0.0149,-0.0115,-0.001,0.0001,0.006,0.0136,0.0176,0.0278,0.0335,0.0444,0.0483,0.0535,0.053,0.0432,0.0452,0.0381,0.03,0.0289,0.0137,0.0022,-0.0013,-0.0036,0.0136,0.0137,0.0139,0.014,0,-0.0243,-0.0162,-0.0135,-0.0072,0.0023,0.0056,0.0098,0.0209,0.0263,0.0336,0.0382,0.0447,0.0451,0.0354,0.0285,0.0311,0.0098,0.0075,-0.0013,-0.0018,-0.0117,-0.013,0.0023,0.0023,0.0023,0.0024,0.0024,0,-0.017,-0.018,-0.0151,-0.0096,-0.0076,0.0013,0.0073,0.0119,0.0228,0.0319,0.0398,0.0452,0.0395,0.0303,0.0221,0.0065,0.0042,0.0024,-0.0065,-0.0036,-0.0039,-0.0017,-0.002,0.0019,0.002,0.0021,0.0022,0,-0.0243,-0.0196,-0.017,-0.0089,-0.0059,-0.0064,0.0072,0.0103,0.0217,0.0297,0.033,0.0418,0.0301,0.0218,0.0024,-0.0017,-0.019,-0.022,-0.0141,-0.0217,-0.0196,-0.0186,-0.034,-0.0343,-0.0346,-0.0349,-0.0351,0,-0.0299,-0.0274,-0.0189,-0.015,-0.0105,-0.0072,-0.0013,0.0099,0.0176,0.0295,0.0334,0.0294,0.0287,-0.0006,-0.0143,-0.034,-0.028,-0.0413,-0.0327,-0.0166,-0.0238,-0.0223,-0.0209,-0.0349,-0.0351,-0.0353,-0.0354,0,-0.0405,-0.0356,-0.0325,-0.0198,-0.0133,-0.0125,-0.0011,0.0063,0.0186,0.027,0.0344,0.0318,0.0133,-0.0054,-0.0294,-0.0398,-0.0399,-0.0452,-0.038,-0.026,-0.0188,-0.0253,-0.0238,-0.0369,-0.0367,-0.0366,-0.0366,-0.0365,-0.0487,-0.0483,-0.035,-0.0272,-0.0207,-0.0145,-0.0072,0.0082,0.0181,0.036,0.0279,0.0292,0.0091,-0.0198,-0.0396,-0.0521,-0.0502,-0.052,-0.051,-0.0499,-0.0478,-0.0416,-0.0632,-0.0632,-0.0632,-0.0632,-0.0632,0,-0.0553,-0.0517,-0.0417,-0.0304,-0.0253,-0.0171,-0.0052,0.004,0.0217,0.0355,0.0397,0.0172,-0.0036,-0.0192,-0.0401,-0.0584,-0.0533,-0.0606,-0.0496,-0.0484,-0.0473,-0.0444,-0.0592,-0.0592,-0.0592,-0.0591,0,0,-0.0576,-0.055,-0.0482,-0.0388,-0.0267,-0.0167,-0.0072,0.0085,0.0236,0.0388,0.0468,0.0315,0.0075,-0.0084,-0.0345,-0.0427,-0.0385,-0.0437,-0.0463,-0.0293,-0.0277,-0.0438,-0.0384,0,0,0,0,0]}],[{"header":{"parameterUnit":"m.s-1","parameterCategory":2,"la1":30.2991,"la2":30.254,"lo1":-89.0895,"lo2":-89.0444,"dy":0.0017,"dx":0.0017,"nx":28,"ny":28,"refTime":"2024-11-26T09:00:00:Z","depth":"4","parameterNumber":2,"parameterNumberName":"U-component_of_CURRENTS"},"data":[0,0,0,0,0,0,0,0,0,0,0,0,0,0,0,0,0,0,0,0,0,0,0,0,0,0,0,0,0,0,0,0,0,0,0,0,0,0,0,0,0,0,0,0,0,0,0,0,0,0,0,0,0,0,0,0,0,0,0.0101,0.0101,0,0.0106,0.0106,0.0106,0.0098,0.0098,0.0098,0.0098,0.011,0.0111,0.0111,0,0,0,0,0,0,0,0,0,0,0,0,0,0.0094,0.0094,0.0101,0.0101,0.0101,0.0106,0.0106,0.0106,0.0098,0.0098,0.0098,0.0098,0.011,0.0111,0.0111,0,0,0,0,0,0,0,0,0,0,0,0,0,0.0095,0.0094,0.01,0.01,0.01,0.0106,0.0106,0.0106,0.0098,0.0098,0.0098,0.0098,0.011,0.011,0.0111,0.0114,0,0,0.0112,0.0113,0,0,0,0,0,0,0,0,0.0095,0.0095,0.01,0.01,0.0101,0.0104,0.0108,0.011,0.0098,0.0096,0.0098,0.0098,0.0111,0.0111,0.0108,0.0115,0.0115,0.0113,0.0113,0.0113,0.0113,0,0,0,0,0,0,0,0.0095,0.0095,0.01,0.01,0.0101,0.0104,0.0103,0.0108,0.0101,0.0096,0.0096,0.0102,0.011,0.0107,0.0108,0.0116,0.0113,0.0113,0.0113,0.0113,0.0124,0.0124,0,0,0,0,0,0,0.01,0.0095,0.01,0.01,0.0101,0.0104,0.0104,0.0101,0.0101,0.0102,0.0102,0.0101,0.0107,0.0108,0.0109,0.01,0.0113,0.0113,0.0114,0.0124,0.0124,0.0124,0,0,0,0,0,0,0.0099,0.01,0.01,0.01,0.0101,0.0104,0.0101,0.0101,0.0097,0.0106,0.0106,0.0099,0.0107,0.0108,0.01,0.0101,0.0114,0.0114,0.0124,0.0124,0.0124,0.009,0,0,0,0,0,0,0.0099,0.0099,0.0091,0.01,0.0101,0.0099,0.0101,0.0101,0.0102,0.0101,0.0103,0.0104,0.0107,0.0099,0.01,0.0101,0.0115,0.0124,0.0124,0.0124,0.0091,0.0089,0.0087,0,0,0,0,0,0.0098,0.0085,0.0091,0.0091,0.0092,0.0099,0.0099,0.01,0.0102,0.0097,0.0091,0.0104,0.01,0.0098,0.01,0.0102,0.0124,0.0124,0.0124,0.0092,0.0089,0.0087,0,0,0,0,0,0,0.0085,0.0083,0.009,0.0079,0.009,0.0099,0.0093,0.01,0.0092,0.0089,0.0095,0.0095,0.0091,0.0102,0.0099,0.0107,0.0119,0.0119,0.0094,0.0091,0.0089,0.0094,0.0115,0,0,0,0,0,0.0079,0.0071,0.0077,0.0078,0.0074,0.0085,0.0086,0.0091,0.0092,0.0088,0.0094,0.0097,0.0093,0.0095,0.0097,0.0097,0.0107,0.0103,0.0101,0.0099,0.0106,0.0094,0.0091,0.0124,0.0124,0.0124,0,0,0.0083,0.008,0.0079,0.0075,0.008,0.008,0.0084,0.0087,0.0096,0.0091,0.0097,0.0088,0.0091,0.0086,0.0087,0.0094,0.0098,0.0099,0.0097,0.0105,0.0094,0.009,0.0087,0.0124,0.0124,0.0124,0,0,0.0092,0.0075,0.0071,0.0067,0.0071,0.0076,0.0077,0.0084,0.0089,0.0093,0.0087,0.0073,0.0086,0.0076,0.0075,0.0065,0.0084,0.0075,0.0069,0.0057,0.0054,0.0052,0.0071,0.0071,0.0076,0.0076,0.0076,0,0.0089,0.0091,0.0075,0.0067,0.0068,0.0074,0.0076,0.008,0.0091,0.0091,0.0095,0.0084,0.0082,0.0063,0.0058,0.006,0.0067,0.0075,0.0053,0.0051,0.0049,0.0069,0.0069,0.0075,0.0075,0.0075,0.0075,0,0.0091,0.0093,0.0089,0.0081,0.0076,0.0079,0.0081,0.0082,0.0091,0.0098,0.0088,0.0073,0.007,0.0062,0.0057,0.004,0.0056,0.0047,0.0056,0.0043,0.0066,0.0066,0.0072,0.0073,0.0073,0.0074,0,0,0.0077,0.0089,0.0087,0.0097,0.0081,0.0084,0.0084,0.0088,0.0094,0.009,0.0098,0.0069,0.0061,0.006,0.0045,0.0028,0.0017,0.0032,0.0032,0.0047,0.0014,0.0097,0.0106,-0.0002,-0.0002,-0.0003,0.004,0,0.0087,0.0092,0.0091,0.0107,0.0105,0.0099,0.0102,0.01,0.0106,0.0113,0.0087,0.009,0.0063,0.0061,0.0034,0.0027,0.0015,0.0009,0.003,0.0032,0.0102,0.0108,-0.0004,0.004,0.004,0.004,0.004,0,0.0079,0.0085,0.0099,0.0125,0.0122,0.0126,0.0123,0.0135,0.0128,0.013,0.011,0.0107,0.0085,0.0068,0.0038,0.0036,0.0026,0.0013,0.0014,0.0106,0.0116,0.0054,0.0041,0.0041,0.0041,0.0041,0.0041,0,0.0068,0.0093,0.0113,0.0112,0.0126,0.0129,0.014,0.013,0.0146,0.0147,0.0156,0.0125,0.0133,0.0095,0.0089,0.0061,0.0072,0.0032,0.0095,0.0102,0.0027,0.0029,0.0008,0.0008,0.0008,0.0008,0.0008,0,0.0063,0.0081,0.0112,0.0109,0.0127,0.0136,0.0152,0.0151,0.0165,0.0182,0.017,0.0181,0.0139,0.0147,0.0111,0.0133,0.0095,0.0108,0.0118,0.0015,0.0015,0.0028,0.003,0.001,0.0009,0.0009,0.0009,0,0.005,0.0073,0.0088,0.0109,0.0119,0.0125,0.0161,0.017,0.019,0.0214,0.0222,0.0236,0.0256,0.0236,0.0209,0.0192,0.0184,0.0197,0.0131,0.0134,0.0211,0.021,0.0259,0.0262,0.0265,0.0267,0.0269,0,0.005,0.0055,0.0074,0.0079,0.0091,0.0114,0.0123,0.016,0.018,0.0245,0.0256,0.0308,0.0312,0.0354,0.0319,0.0304,0.0284,0.029,0.0202,0.0232,0.0236,0.0231,0.0227,0.0274,0.0274,0.0275,0.0276,0,0.0039,0.0041,0.0049,0.0052,0.0063,0.0095,0.0126,0.0147,0.0203,0.0228,0.0306,0.0345,0.0391,0.0391,0.0416,0.0379,0.0288,0.0318,0.031,0.0227,0.0251,0.025,0.0243,0.0286,0.0284,0.0283,0.0283,0,0.0022,0.0019,0.0022,0.0033,0.0046,0.0076,0.0099,0.0156,0.0197,0.028,0.0309,0.0363,0.0399,0.0434,0.0437,0.0447,0.0409,0.0371,0.0358,0.0348,0.0358,0.04,0.0501,0,0,0,0,0,0.0002,0.0007,0.001,0.0026,0.0044,0.0064,0.0101,0.0131,0.0191,0.0249,0.0291,0.034,0.0404,0.0428,0.045,0.0446,0.0387,0.047,0.0329,0.0339,0.0328,0.0332,0,0,0,0,0,0,-0.0017,-0.0009,0.0003,0.0029,0.0049,0.0079,0.0104,0.0145,0.0191,0.0252,0.0284,0.0343,0.0391,0.0395,0.0452,0.0458,0.0371,0.0507,0.0507,0.0346,0.0335,0.0326,0.0326,0,0,0,0,0]},{"header":{"parameterUnit":"m.s-1","parameterCategory":2,"la1":30.2991,"la2":30.254,"lo1":-89.0895,"lo2":-89.0444,"dy":0.0017,"dx":0.0017,"nx":28,"ny":28,"refTime":"2024-11-26T09:00:00:Z","depth":"4","parameterNumber":3,"parameterNumberName":"V-component_of_CURRENTS"},"data":[0,0,0,0,0,0,0,0,0,0,0,0,0,0,0,0,0,0,0,0,0,0,0,0,0,0,0,0,0,0,0,0,0,0,0,0,0,0,0,0,0,0,0,0,0,0,0,0,0,0,0,0,0,0,0,0,0,0,-0.0598,-0.0598,0,-0.0605,-0.0606,-0.0606,-0.0647,-0.0648,-0.0649,-0.065,-0.0729,-0.073,-0.0731,0,0,0,0,0,0,0,0,0,0,0,0,0,-0.0579,-0.058,-0.0598,-0.0598,-0.0598,-0.0605,-0.0606,-0.0606,-0.0647,-0.0648,-0.0649,-0.065,-0.0728,-0.073,-0.0731,0,0,0,0,0,0,0,0,0,0,0,0,0,-0.0589,-0.058,-0.0598,-0.0618,-0.062,-0.0605,-0.0606,-0.0606,-0.0647,-0.0648,-0.0649,-0.065,-0.0728,-0.073,-0.0732,-0.0718,0,0,-0.0738,-0.0738,0,0,0,0,0,0,0,0,-0.0588,-0.059,-0.0615,-0.0617,-0.0619,-0.0625,-0.0628,-0.0647,-0.0646,-0.0638,-0.065,-0.0651,-0.0699,-0.0703,-0.0703,-0.0722,-0.0725,-0.0738,-0.0739,-0.074,-0.074,0,0,0,0,0,0,0,-0.0588,-0.0589,-0.0603,-0.0615,-0.0617,-0.0613,-0.0616,-0.0631,-0.0664,-0.0639,-0.0642,-0.064,-0.0701,-0.0701,-0.0705,-0.0727,-0.0738,-0.074,-0.0741,-0.0742,-0.0749,-0.0748,0,0,0,0,0,0,-0.0584,-0.0589,-0.0602,-0.0603,-0.0604,-0.0612,-0.0616,-0.0623,-0.0662,-0.0668,-0.0638,-0.0641,-0.0697,-0.0703,-0.0708,-0.077,-0.074,-0.0742,-0.0743,-0.075,-0.0748,-0.0747,0,0,0,0,0,0,-0.0584,-0.0586,-0.0602,-0.0594,-0.0596,-0.0611,-0.0619,-0.0623,-0.0634,-0.0661,-0.0669,-0.0647,-0.0698,-0.0706,-0.0729,-0.0771,-0.0743,-0.0744,-0.0751,-0.0749,-0.0748,-0.0846,0,0,0,0,0,0,-0.0583,-0.0586,-0.0598,-0.0594,-0.0596,-0.0605,-0.0618,-0.0622,-0.0629,-0.0634,-0.0671,-0.0679,-0.07,-0.0726,-0.0731,-0.0773,-0.0746,-0.0752,-0.075,-0.0748,-0.0844,-0.0848,-0.0852,0,0,0,0,0,-0.0583,-0.0599,-0.0599,-0.0601,-0.061,-0.0605,-0.0607,-0.0622,-0.0628,-0.0637,-0.0656,-0.0678,-0.0717,-0.0727,-0.0733,-0.0777,-0.0753,-0.0751,-0.0749,-0.0842,-0.0847,-0.0851,0,0,0,0,0,0,-0.0602,-0.0604,-0.0604,-0.0622,-0.0616,-0.0612,-0.0625,-0.0622,-0.0641,-0.0651,-0.0674,-0.0683,-0.0719,-0.071,-0.072,-0.0762,-0.0735,-0.0734,-0.0804,-0.0808,-0.0812,-0.0825,-0.0748,0,0,0,0,0,-0.0608,-0.0619,-0.0613,-0.0624,-0.0627,-0.0622,-0.0624,-0.0627,-0.0636,-0.0646,-0.0675,-0.069,-0.0709,-0.073,-0.074,-0.0768,-0.0751,-0.0789,-0.0793,-0.0797,-0.0804,-0.082,-0.0829,-0.074,-0.074,-0.074,0,0,-0.061,-0.0618,-0.062,-0.0628,-0.063,-0.064,-0.0629,-0.0633,-0.0647,-0.0652,-0.0696,-0.0709,-0.0712,-0.0752,-0.0766,-0.0759,-0.0803,-0.0794,-0.0798,-0.0804,-0.0819,-0.0829,-0.0837,-0.0739,-0.0739,-0.0739,0,0,-0.062,-0.0636,-0.0645,-0.0649,-0.0651,-0.0655,-0.0655,-0.066,-0.0674,-0.0699,-0.0707,-0.0739,-0.0768,-0.0791,-0.0801,-0.0819,-0.0819,-0.0816,-0.0867,-0.0884,-0.0893,-0.09,-0.0865,-0.0869,-0.0826,-0.0826,-0.0826,0,-0.0626,-0.0635,-0.0645,-0.066,-0.0663,-0.0664,-0.0669,-0.0685,-0.0698,-0.0704,-0.0726,-0.0765,-0.0791,-0.0825,-0.0852,-0.0838,-0.0825,-0.0866,-0.0895,-0.0903,-0.0909,-0.0871,-0.0874,-0.0831,-0.083,-0.083,-0.0829,0,-0.0639,-0.0649,-0.0658,-0.068,-0.0691,-0.0692,-0.071,-0.0728,-0.0749,-0.076,-0.0797,-0.0833,-0.085,-0.0874,-0.089,-0.0939,-0.0904,-0.0901,-0.0901,-0.0925,-0.0881,-0.0883,-0.0837,-0.0835,-0.0834,-0.0833,0,0,-0.0639,-0.0658,-0.0662,-0.0661,-0.0695,-0.0696,-0.0734,-0.0746,-0.0753,-0.0808,-0.0823,-0.0899,-0.0911,-0.092,-0.0937,-0.0984,-0.1035,-0.0982,-0.098,-0.0976,-0.1039,-0.0979,-0.0974,-0.1053,-0.1054,-0.1055,-0.0983,0,-0.0637,-0.0652,-0.067,-0.0682,-0.0684,-0.0706,-0.0733,-0.0753,-0.078,-0.0804,-0.0853,-0.0881,-0.0927,-0.0945,-0.1003,-0.1017,-0.1047,-0.1052,-0.099,-0.0987,-0.0957,-0.0978,-0.106,-0.0984,-0.0984,-0.0984,-0.0985,0,-0.0644,-0.0646,-0.0655,-0.0657,-0.0662,-0.0683,-0.0705,-0.0722,-0.0763,-0.0784,-0.0832,-0.0858,-0.0927,-0.0965,-0.1023,-0.1025,-0.1046,-0.1066,-0.1063,-0.0979,-0.0932,-0.0955,-0.0987,-0.0987,-0.0987,-0.0987,-0.0986,0,-0.0623,-0.0634,-0.0635,-0.0641,-0.0658,-0.0669,-0.0682,-0.0718,-0.0723,-0.0769,-0.0781,-0.0847,-0.087,-0.0934,-0.0987,-0.101,-0.1034,-0.1049,-0.1001,-0.0993,-0.1029,-0.1022,-0.1093,-0.1093,-0.1093,-0.1093,-0.1093,0,-0.0608,-0.0605,-0.0624,-0.0621,-0.0619,-0.0645,-0.0651,-0.0669,-0.0698,-0.0691,-0.0765,-0.0775,-0.0876,-0.09,-0.0962,-0.0971,-0.0999,-0.101,-0.0985,-0.1062,-0.106,-0.1028,-0.1022,-0.109,-0.1091,-0.1091,-0.1092,0,-0.058,-0.0596,-0.0589,-0.0602,-0.061,-0.061,-0.063,-0.0625,-0.0657,-0.0651,-0.0666,-0.0718,-0.074,-0.0804,-0.0871,-0.0904,-0.0938,-0.0931,-0.0967,-0.0944,-0.0887,-0.0885,-0.0867,-0.0864,-0.0862,-0.0861,-0.0859,0,-0.0558,-0.0557,-0.0572,-0.0572,-0.058,-0.0587,-0.0587,-0.0611,-0.0599,-0.0606,-0.0591,-0.0615,-0.0647,-0.0663,-0.0763,-0.0818,-0.0846,-0.0844,-0.093,-0.0893,-0.0871,-0.0873,-0.0874,-0.0856,-0.0855,-0.0855,-0.0854,0,-0.0509,-0.053,-0.0524,-0.0525,-0.0529,-0.0534,-0.053,-0.0519,-0.0521,-0.054,-0.0501,-0.0533,-0.0538,-0.0609,-0.064,-0.0704,-0.0846,-0.0824,-0.083,-0.091,-0.0879,-0.086,-0.0864,-0.0847,-0.0848,-0.0849,-0.0849,0,-0.0476,-0.046,-0.0465,-0.0466,-0.0475,-0.0478,-0.0488,-0.046,-0.0453,-0.0442,-0.0421,-0.0459,-0.0483,-0.0546,-0.059,-0.0628,-0.0662,-0.0697,-0.0711,-0.0719,-0.0723,-0.0665,-0.0547,0,0,0,0,0,-0.0437,-0.0412,-0.0401,-0.0403,-0.042,-0.0433,-0.0441,-0.045,-0.0438,-0.0382,-0.0398,-0.0397,-0.0447,-0.0494,-0.0515,-0.059,-0.0697,-0.0622,-0.075,-0.0808,-0.0816,-0.0844,0,0,0,0,0,0,-0.0399,-0.0386,-0.0376,-0.0362,-0.0362,-0.0373,-0.0388,-0.039,-0.0366,-0.0355,-0.0379,-0.0386,-0.0446,-0.0408,-0.0502,-0.0521,-0.0605,-0.0651,-0.0651,-0.0803,-0.0811,-0.0817,-0.0849,0,0,0,0,0]}]]